Weather History for Frenchville, ME

Change the Weather History Date:

Wednesday, January 2, 2013

  Actual Average Record
Temperature  
Mean Temperature -2 °F 11 °F  
Max Temperature 4 °F 19 °F 36 °F (2011)
Min Temperature -8 °F 3 °F -28 °F (2014)
Degree Days  
Heating Degree Days 67    
Month to date heating degree days 125  
Since 1 July heating degree days 3536  
Cooling Degree Days 0    
Month to date cooling degree days 0  
Year to date cooling degree days 0  
Moisture  
Dew Point -10 °F    
Average Humidity 67    
Maximum Humidity 75    
Minimum Humidity 57    
Precipitation  
Precipitation 0.00 in 0.13 in 0.13 in (2012)
Month to date precipitation 0.01 0.26  
Year to date precipitation 0.01 0.26  
Sea Level Pressure  
Sea Level Pressure 29.72 in    
Wind  
Wind Speed 18 mph (WNW)    
Max Wind Speed 28 mph    
Max Gust Speed 38 mph    
Visibility 10 miles    
Events      
T = Trace of Precipitation, MM = Missing Value Source: NWS Daily Summary

Daily Weather History Graph

Daily Weather History Graph

Search for Another Location

Airport:

Trip Planner

Search our weather history database for the weather conditions in past years. The results will help you decide how hot, cold, wet, or windy it might be!

Date:

Astronomy

Jan. 02, 2013 Rise Set
Actual Time 7:20 AM EST 3:54 PM EST
Civil Twilight 6:44 AM EST 4:30 PM EST
Nautical Twilight 6:05 AM EST 5:09 PM EST
Astronomical Twilight 5:28 AM EST 5:46 PM EST
Moon 9:48 PM EST (1/2) 9:38 AM EST (1/2)
Length of Visible Light 9h 45m
Length of Day
8h 34m
Waning Gibbous, 75% of the Moon is Illuminated
Jan 2
Waning Gibbous
Jan 4
Last Quarter
Jan 11
New
Jan 18
First Quarter
Jan 26
Full

Hourly Weather History & Observations

Time (EST) Temp. Windchill Dew Point Humidity Pressure Visibility Wind Dir Wind Speed Gust Speed Precip Events Conditions
12:53 AM -2.0 °F -22.6 °F -9.9 °F 69% 29.62 in 10.0 mi WNW 16.1 mph - N/A   Clear
1:53 AM -2.9 °F -24.4 °F -9.9 °F 72% 29.63 in 10.0 mi WNW 17.3 mph 24.2 mph N/A   Clear
2:53 AM -2.9 °F -23.8 °F -11.0 °F 68% 29.64 in 10.0 mi WNW 16.1 mph 27.6 mph N/A   Clear
3:53 AM -6.0 °F -27.0 °F -11.9 °F 75% 29.64 in 10.0 mi WNW 15.0 mph - N/A   Clear
4:53 AM -6.0 °F -26.3 °F -13.0 °F 72% 29.64 in 10.0 mi WNW 13.8 mph 19.6 mph N/A   Clear
5:53 AM -8.0 °F -31.0 °F -14.1 °F 75% 29.65 in 10.0 mi WNW 17.3 mph - N/A   Clear
6:53 AM -7.1 °F -29.8 °F -14.1 °F 72% 29.65 in 10.0 mi WNW 17.3 mph - N/A   Clear
7:53 AM -7.1 °F -25.0 °F -13.0 °F 75% 29.65 in 10.0 mi WNW 10.4 mph 23.0 mph N/A   Clear
8:53 AM -5.1 °F -27.8 °F -13.0 °F 69% 29.65 in 10.0 mi WNW 18.4 mph 27.6 mph N/A   Clear
9:53 AM -2.0 °F -23.9 °F -13.0 °F 60% 29.65 in 10.0 mi WNW 18.4 mph 29.9 mph N/A   Clear
10:53 AM -0.0 °F -21.8 °F -11.9 °F 57% 29.65 in 10.0 mi WNW 19.6 mph 32.2 mph N/A   Clear
11:53 AM 1.0 °F -20.9 °F -11.0 °F 57% 29.64 in 10.0 mi WNW 20.7 mph 31.1 mph N/A   Clear
12:53 PM 1.9 °F -20.2 °F -9.0 °F 60% 29.64 in 10.0 mi WNW 21.9 mph 32.2 mph N/A   Clear
1:53 PM 3.0 °F -17.8 °F -7.1 °F 63% 29.65 in 10.0 mi WNW 19.6 mph 31.1 mph N/A   Partly Cloudy
2:53 PM 3.9 °F -17.6 °F -7.1 °F 60% 29.68 in 10.0 mi WNW 21.9 mph 31.1 mph N/A   Overcast
3:53 PM 3.9 °F -18.5 °F -7.1 °F 60% 29.71 in 10.0 mi NW 24.2 mph 34.5 mph N/A   Partly Cloudy
4:53 PM 1.9 °F -19.8 °F -8.0 °F 63% 29.76 in 10.0 mi NW 20.7 mph 34.5 mph N/A   Clear
5:53 PM -0.0 °F -23.3 °F -9.0 °F 66% 29.80 in 10.0 mi NW 23.0 mph 36.8 mph N/A   Clear
6:53 PM -0.9 °F -22.4 °F -9.9 °F 66% 29.83 in 10.0 mi NW 18.4 mph 31.1 mph N/A   Clear
7:53 PM -0.9 °F -21.9 °F -9.9 °F 66% 29.85 in 10.0 mi NW 17.3 mph 27.6 mph N/A   Clear
8:53 PM -0.9 °F -24.1 °F -9.0 °F 69% 29.87 in 10.0 mi NW 21.9 mph 32.2 mph N/A   Clear
9:53 PM -0.9 °F -21.9 °F -9.0 °F 69% 29.89 in 10.0 mi NW 17.3 mph 27.6 mph N/A   Clear
10:53 PM -0.9 °F -21.2 °F -9.0 °F 69% 29.90 in 10.0 mi NW 16.1 mph 27.6 mph N/A   Clear
11:53 PM -2.0 °F -25.0 °F -9.0 °F 72% 29.91 in 10.0 mi NW 20.7 mph 29.9 mph N/A   Partly Cloudy